Location: Katwijk
(52.2000°N, 4.4170°E)
Time: 12:22:54
(UTC+02:00)

ISS - Visible Passes

Search period start: 28 July 2015 00:00
Search period end: 07 August 2015 00:00
Orbit: 401 x 403 km, 51.6° (Epoch: 28 July)

Date Brightness Start Highest point End Pass type
(mag) Time Alt. Az. Time Alt. Az. Time Alt. Az.
28 Jul -3.5 02:26:21 70° S 02:26:28 71° S 02:29:44 10° E visible
28 Jul -3.5 03:59:36 10° W 04:02:52 75° S 04:06:08 10° ESE visible
29 Jul -1.8 01:35:06 25° E 01:35:06 25° E 01:36:38 10° E visible
29 Jul -3.5 03:07:41 21° W 03:09:46 83° S 03:13:02 10° E visible
29 Jul -3.0 04:42:54 10° W 04:46:02 43° SSW 04:49:08 10° SE visible
30 Jul -3.5 02:16:11 81° SSW 02:16:14 82° S 02:19:30 10° E visible
30 Jul -3.4 03:49:21 10° W 03:52:34 58° SSW 03:55:46 10° ESE visible
31 Jul -1.1 01:24:50 16° E 01:24:50 16° E 01:25:34 10° E visible
31 Jul -3.5 02:57:27 35° W 02:58:38 73° S 03:01:52 10° ESE visible
31 Jul -2.4 04:31:53 10° W 04:34:43 28° SSW 04:37:32 10° SSE visible
31 Jul -1.9 22:49:45 10° SSW 22:52:06 19° SE 22:54:30 10° E visible
01 Aug -3.3 00:24:49 10° WSW 00:27:41 54° SSW 00:27:41 54° SSW visible
01 Aug-0.302:07:53E02:07:53E02:00:19Wvisible
01 Aug -3.0 03:40:41 39° S 03:40:41 39° S 03:43:30 10° SE visible
01 Aug -1.3 05:15:14 10° WSW 05:16:09 11° SW 05:16:59 10° SSW visible
01 Aug -3.0 23:30:16 10° SW 23:33:21 43° SSE 23:36:09 12° E visible
02 Aug -2.7 01:06:17 10° W 01:08:39 45° W 01:08:39 45° W visible
02 Aug -2.5 22:35:29 10° SSW 22:38:20 29° SSE 22:41:13 10° E visible
03 Aug -3.5 00:11:07 10° WSW 00:14:21 74° S 00:15:41 32° E visible
03 Aug -1.0 01:47:21 10° W 01:48:07 16° W 01:48:07 16° W visible
03 Aug -3.4 23:15:36 10° WSW 23:18:48 59° SSE 23:22:00 10° E visible
04 Aug -3.2 00:51:45 10° W 00:54:29 60° W 00:54:29 60° W visible
04 Aug -3.0 22:19:48 10° SW 22:22:53 43° SSE 22:25:59 10° E visible
04 Aug -3.5 23:55:44 10° W 23:58:58 82° S 00:00:22 31° E visible
05 Aug -1.0 01:31:56 10° W 01:32:44 16° W 01:32:44 16° W visible
05 Aug -3.5 22:59:20 10° WSW 23:02:34 74° S 23:05:47 10° E visible
06 Aug -3.1 00:35:29 10° W 00:38:10 56° WSW 00:38:10 56° WSW visible
06 Aug -3.3 22:02:35 10° WSW 22:05:47 58° SSE 22:08:57 10° E visible
06 Aug -3.5 23:38:37 10° W 23:41:52 82° S 23:43:12 32° E visible
